Location: Unspecified
(0.0000°N, 0.0000°E)
Time: 00:47:55
(UTC+00:00)

Cosmos 80 Rocket - Pass Details

Date: 30 September 2021
Orbit: 1360 x 1510 km, 56.1° (Epoch: 26 October)

Event Time Altitude Azimuth Distance (km) Brightness Sun altitude
Rises 19:20:29 0° 335° (NNW) 4,596 8.3 -22.6°
Reaches altitude 10° 19:23:32 10° 337° (NNW) 3,602 7.7 -23.4°
Maximum altitude 19:32:25 70° 60° (ENE) 1,522 5.2 -25.6°
Enters shadow 19:36:35 35° 133° (SE) 2,155 5.9 -26.6°
